Location: Agrigento
(37.3170°N, 13.5670°E)
Time: 03:41:57
(UTC+01:00)

ISS - Visible Passes

Search period start: 23 January 2019 00:00
Search period end: 02 February 2019 00:00
Orbit: 404 x 411 km, 51.6° (Epoch: 23 January)

Date Brightness Start Highest point End Pass type
(mag) Time Alt. Az. Time Alt. Az. Time Alt. Az.
23 Jan -3.4 18:36:25 10° WSW 18:39:39 56° NW 18:41:04 29° NNE visible
24 Jan -3.8 17:45:03 10° SW 17:48:18 71° SE 17:51:36 10° NE visible
24 Jan -1.3 19:22:57 10° WNW 19:24:46 16° NW 19:24:46 16° NW visible
25 Jan -2.0 18:30:49 10° W 18:33:36 25° NNW 18:35:40 14° NNE visible
26 Jan -0.9 19:18:44 10° NNW 19:19:13 10° NNW 19:19:13 10° NNW visible
27 Jan -1.2 18:25:49 10° WNW 18:27:40 14° NNW 18:29:32 10° NNE visible
